{"data":{"norad_id":59122,"intl_designator":"2024-043AA","name":"NUSAT-44 (MARIA MITCHE*)","alt_names":[],"object_type":"PAYLOAD","status":"ACTIVE","operator":null,"country":"ARGN","launch_date":"2024-03-04","launch_site_code":"AFWTR","launch_vehicle":null,"mission":null,"orbit_class":"UNKNOWN","rcs_meters":null,"size_class":null,"mass_kg":null,"dimensions":null,"purposes":[],"wikipedia_slug":null,"has_3d_model":false,"image_url":null,"decayed_at":null,"tle_current":{"epoch":"2026-05-25T04:31:46.728192Z","epoch_age_seconds":52101,"freshness":"FRESH","line1":"1 59122U 24043AA  26145.18873528  .00010654  00000+0  36895-3 0  9991","line2":"2 59122  97.5417 285.1050 0005748 320.1824  39.8993 15.30026639123753","mean_motion":15.30026639,"eccentricity":0.0005748,"inclination_deg":97.5417,"raan_deg":285.105,"arg_perigee_deg":320.1824,"mean_anomaly_deg":39.8993,"bstar":0.00036895,"rev_number":12375,"period_min":94.116008394544,"perigee_km":471.79313866284,"apogee_km":479.67234731938,"semimajor_km":6853.8697429911,"source":"CELESTRAK","updated_at":"2026-05-25T13:38:01.193716Z"}}}